Inverness, United Kingdom

1:13 AM BST on July 24, 2017 (GMT +0100)
Inverness

Weather History for EGPE - May, 2013

Change the Weather History Date:

Thursday, May 9, 2013

  Actual Average Record
Temperature  
Mean Temperature 49 °F -  
Max Temperature 59 °F 56 °F 77 °F (2008)
Min Temperature 39 °F 43 °F 28 °F (2017)
Degree Days  
Heating Degree Days 16    
Moisture  
Dew Point 39 °F    
Average Humidity 67    
Maximum Humidity 93    
Minimum Humidity 39    
Precipitation  
Precipitation 0.00 in - - ()
Sea Level Pressure  
Sea Level Pressure 29.45 in    
Wind  
Wind Speed 8 mph ()    
Max Wind Speed 16 mph    
Max Gust Speed -    
Visibility 6.2 miles    
Events Rain    
Averages and records for this station are not official NWS values.
T = Trace of Precipitation, MM = Missing Value Source: Averaged Metar Reports

Daily Weather History Graph

Daily Weather History Graph

Search for Another Location

Airport or City:

Trip Planner

Search our weather history database for the weather conditions in past years. The results will help you decide how hot, cold, wet, or windy it might be!

Date:

Astronomy

May. 09, 2013 Rise Set
Actual Time 5:07 AM BST 9:19 PM BST
Civil Twilight 4:16 AM BST 10:10 PM BST
Nautical Twilight 2:57 AM BST 11:31 PM BST
Astronomical Twilight 1:45 AM BST Sun does not set
Moon 4:53 AM BST (5/9) 8:57 PM BST (5/9)
Length of Visible Light 17h 54m
Length of Day
16h 12m
Waning Crescent, 0% of the Moon is Illuminated
May 9
Waning Crescent
May 10
New
May 18
First Quarter
May 25
Full
May 31
Last Quarter

Hourly Weather History & Observations

Time (BST) Temp. Windchill Dew Point Humidity Pressure Visibility Wind Dir Wind Speed Gust Speed Precip Events Conditions
12:20 AM 51.8 °F - 44.6 °F 76% 29.47 in 6.2 mi South 5.8 mph - N/A   Overcast
12:50 AM 50.0 °F - 42.8 °F 76% 29.47 in 6.2 mi South 9.2 mph - N/A   Scattered Clouds
1:20 AM 48.2 °F - 39.2 °F 71% 29.47 in 6.2 mi South 11.5 mph - N/A   Unknown
1:50 AM 48.2 °F - 39.2 °F 71% 29.47 in 6.2 mi South 16.1 mph - N/A   Unknown
2:20 AM 46.4 °F 41.9 °F 39.2 °F 76% 29.47 in 6.2 mi SSW 9.2 mph - N/A   Unknown
2:50 AM 46.4 °F 41.1 °F 39.2 °F 76% 29.44 in - SSW 11.5 mph - N/A   Clear
3:20 AM 44.6 °F 39.7 °F 39.2 °F 81% 29.44 in - South 9.2 mph - N/A   Clear
3:50 AM 42.8 °F - 39.2 °F 87% 29.47 in - West 2.3 mph - N/A   Clear
4:20 AM 39.2 °F - 33.8 °F 81% 29.47 in - Calm Calm - N/A   Clear
4:50 AM 41.0 °F 36.4 °F 37.4 °F 87% 29.44 in - SSW 6.9 mph - N/A   Clear
5:20 AM 46.4 °F 40.7 °F 39.2 °F 76% 29.44 in 6.2 mi South 12.7 mph - N/A   Partly Cloudy
5:50 AM 44.6 °F 39.7 °F 39.2 °F 81% 29.44 in 6.2 mi SSW 9.2 mph - N/A   Partly Cloudy
6:20 AM 44.6 °F - 39.2 °F 81% 29.47 in 6.2 mi Variable 2.3 mph - N/A   Partly Cloudy
6:50 AM 48.2 °F - 41.0 °F 76% 29.47 in 6.2 mi WSW 4.6 mph - N/A   Partly Cloudy
7:20 AM 50.0 °F - 41.0 °F 71% 29.47 in 6.2 mi Variable 3.5 mph - N/A   Partly Cloudy
7:50 AM 51.8 °F - 39.2 °F 62% 29.47 in 6.2 mi Variable 3.5 mph - N/A   Partly Cloudy
8:20 AM 51.8 °F - 39.2 °F 62% 29.47 in 6.2 mi SW 5.8 mph - N/A   Partly Cloudy
8:50 AM 53.6 °F - 39.2 °F 58% 29.47 in 6.2 mi South 11.5 mph - N/A   Partly Cloudy
9:20 AM 55.4 °F - 37.4 °F 51% 29.47 in 6.2 mi SSW 12.7 mph - N/A   Partly Cloudy
9:50 AM 55.4 °F - 37.4 °F 51% 29.47 in 6.2 mi SSW 15.0 mph - N/A   Partly Cloudy
10:20 AM 53.6 °F - 35.6 °F 51% 29.47 in 6.2 mi SSW 13.8 mph - N/A   Partly Cloudy
10:50 AM 55.4 °F - 35.6 °F 47% 29.47 in 6.2 mi South 12.7 mph - N/A   Partly Cloudy
11:20 AM 57.2 °F - 37.4 °F 48% 29.47 in 6.2 mi SSW 13.8 mph - N/A   Scattered Clouds
11:50 AM 59.0 °F - 35.6 °F 42% 29.47 in 6.2 mi South 13.8 mph - N/A   Scattered Clouds
12:20 PM 59.0 °F - 35.6 °F 42% 29.47 in 6.2 mi South 15.0 mph - N/A   Scattered Clouds
12:50 PM 57.2 °F - 37.4 °F 48% 29.44 in 6.2 mi South 12.7 mph - N/A   Scattered Clouds
1:20 PM 59.0 °F - 35.6 °F 42% 29.44 in 6.2 mi South 12.7 mph - N/A   Scattered Clouds
1:50 PM 59.0 °F - 33.8 °F 39% 29.44 in 6.2 mi South 4.6 mph - N/A   Scattered Clouds
2:20 PM 57.2 °F - 33.8 °F 41% 29.44 in 6.2 mi East 4.6 mph - N/A   Scattered Clouds
2:50 PM 53.6 °F - 39.2 °F 58% 29.44 in 6.2 mi NE 9.2 mph - N/A   Scattered Clouds
3:20 PM 53.6 °F - 39.2 °F 58% 29.44 in 6.2 mi NNE 10.4 mph - N/A   Scattered Clouds
3:50 PM 53.6 °F - 42.8 °F 67% 29.44 in 6.2 mi NNE 8.1 mph - N/A Rain Light Rain Showers
4:20 PM 51.8 °F - 42.8 °F 71% 29.42 in 6.2 mi North 9.2 mph - N/A Rain Light Rain Showers
4:50 PM 51.8 °F - 44.6 °F 76% 29.42 in 6.2 mi NNE 8.1 mph - N/A Rain Light Rain Showers
5:20 PM 53.6 °F - 42.8 °F 67% 29.42 in 6.2 mi ESE 6.9 mph - N/A Rain Light Rain Showers
5:50 PM 53.6 °F - 42.8 °F 67% 29.44 in 6.2 mi Variable 3.5 mph - N/A   Scattered Clouds
6:20 PM 53.6 °F - 44.6 °F 72% 29.42 in 6.2 mi Variable 3.5 mph - N/A   Scattered Clouds
6:50 PM 53.6 °F - 39.2 °F 58% 29.42 in 6.2 mi ESE 8.1 mph - N/A   Scattered Clouds
7:20 PM 51.8 °F - 39.2 °F 62% 29.42 in 6.2 mi SE 9.2 mph - N/A   Scattered Clouds
7:50 PM 51.8 °F - 39.2 °F 62% 29.42 in 6.2 mi SE 8.1 mph - N/A   Scattered Clouds
8:20 PM 50.0 °F - 39.2 °F 66% 29.42 in 6.2 mi SE 6.9 mph - N/A   Partly Cloudy
8:50 PM 48.2 °F - 39.2 °F 71% 29.44 in 6.2 mi East 6.9 mph - N/A   Partly Cloudy
9:20 PM 46.4 °F 44.3 °F 39.2 °F 76% 29.44 in 6.2 mi East 4.6 mph - N/A   Partly Cloudy
9:50 PM 44.6 °F 42.2 °F 39.2 °F 81% 29.44 in 6.2 mi ESE 4.6 mph - N/A   Unknown
10:20 PM 41.0 °F 39.0 °F 37.4 °F 87% 29.44 in 6.2 mi ENE 3.5 mph - N/A   Unknown
10:50 PM 39.2 °F 37.0 °F 37.4 °F 93% 29.44 in 6.2 mi NNE 3.5 mph - N/A   Unknown
11:20 PM 39.2 °F 37.0 °F 37.4 °F 93% 29.44 in 6.2 mi ENE 3.5 mph - N/A   Unknown
11:50 PM 39.2 °F 35.9 °F 37.4 °F 93% 29.44 in 6.2 mi ENE 4.6 mph - N/A   Unknown